KM4NDN Weather Reports


Display with metric or nautical units.
time (UTC)temp
F
wind
direction
speed
MPH
gust
MPH
rain 1hr
in
rain 24hr
in
rain mn
in
humidity
%
barometer
mb
20260506134533 49 236 4.0 6.0 0.00 0.29 0.29 83 1009.7
20260506134029 49 300 6.0 7.0 0.00 0.29 0.29 82 1009.1
20260506133527 48 273 7.0 9.0 0.00 0.29 0.29 83 1009.4
20260506133024 48 292 7.0 9.0 0.00 0.29 0.29 84 1009.3
20260506132521 48 225 5.0 7.0 0.00 0.29 0.29 85 1009.3
20260506132018 47 271 4.0 6.0 0.00 0.29 0.29 85 1009.1
20260506131515 47 231 7.0 8.0 0.00 0.29 0.29 86 1009.2
20260506131011 47 257 5.0 8.0 0.00 0.29 0.29 85 1009.0
20260506130508 47 264 6.0 8.0 0.00 0.29 0.29 86 1009.0
20260506130006 47 284 6.0 8.0 0.00 0.29 0.29 85 1009.2
20260506125504 46 269 5.0 8.0 0.00 0.29 0.29 86 1009.1
20260506125001 46 266 4.0 4.0 0.00 0.29 0.29 87 1008.9
20260506124459 46 234 5.0 6.0 0.00 0.29 0.29 86 1008.9
20260506123957 46 273 5.0 8.0 0.00 0.29 0.29 87 1008.6
20260506123454 46 275 4.0 7.0 0.00 0.29 0.29 88 1008.7
20260506122952 46 271 4.0 8.0 0.00 0.29 0.29 88 1008.6
20260506122449 46 271 6.0 8.0 0.00 0.29 0.29 88 1008.6
20260506121947 45 285 6.0 7.0 0.00 0.29 0.29 90 1008.5
20260506121444 45 232 3.0 4.0 0.00 0.29 0.29 90 1008.4
20260506120940 45 260 5.0 8.0 0.00 0.29 0.29 90 1008.5
20260506120438 45 240 4.0 4.0 0.00 0.29 0.29 90 1008.3
20260506115935 45 244 3.0 4.0 0.00 0.29 0.29 90 1008.2
20260506115433 45 261 4.0 4.0 0.00 0.29 0.29 90 1008.3
20260506114931 45 250 3.0 3.0 0.00 0.29 0.29 90 1008.0
20260506114428 45 246 3.0 4.0 0.00 0.29 0.29 90 1008.4
20260506113927 45 248 5.0 7.0 0.00 0.29 0.29 90 1008.7
20260506113424 45 224 2.0 6.0 0.00 0.29 0.29 91 1008.3
20260506112921 45 242 4.0 6.0 0.00 0.29 0.29 92 1008.5
20260506112419 45 240 2.0 3.0 0.00 0.29 0.29 92 1008.4
20260506111916 44 245 6.0 8.0 0.00 0.29 0.29 92 1008.4
20260506111414 44 223 3.0 4.0 0.00 0.29 0.29 92 1008.0
20260506110910 44 244 3.0 6.0 0.00 0.29 0.29 93 1008.1
20260506110408 44 217 4.0 4.0 0.00 0.29 0.29 93 1007.8
20260506105904 44 222 3.0 3.0 0.00 0.29 0.29 93 1007.6
20260506105401 44 248 2.0 3.0 0.00 0.29 0.29 94 1007.6
20260506104858 44 248 2.0 3.0 0.00 0.29 0.29 94 1007.6
20260506104356 44 236 4.0 4.0 0.00 0.29 0.29 94 1007.5
20260506103853 44 236 2.0 2.0 0.00 0.29 0.29 94 1007.1
20260506103351 44 236 1.0 1.0 0.00 0.29 0.29 94 1006.9
20260506102848 44 236 0.0 1.0 0.00 0.29 0.29 95 1006.8
20260506102346 44 235 1.0 1.0 0.00 0.29 0.29 94 1006.8
20260506101843 44 235 0.0 1.0 0.00 0.29 0.29 94 1006.8
20260506101339 44 235 1.0 2.0 0.00 0.29 0.29 94 1006.9
20260506100837 44 236 2.0 2.0 0.00 0.29 0.29 94 1007.0
20260506100335 44 236 2.0 2.0 0.00 0.29 0.29 94 1007.1
20260506095833 44 236 1.0 1.0 0.00 0.29 0.29 94 1006.8
20260506095330 44 236 0.0 1.0 0.00 0.29 0.29 94 1006.8
20260506094827 44 237 0.0 3.0 0.00 0.29 0.29 94 1007.0
20260506094326 44 249 2.0 4.0 0.00 0.29 0.29 94 1007.5
20260506093823 44 275 4.0 6.0 0.00 0.29 0.29 94 1007.6
20260506093320 44 224 3.0 3.0 0.00 0.29 0.29 94 1007.5
20260506092818 44 264 2.0 3.0 0.00 0.29 0.29 94 1007.1
20260506092315 44 261 2.0 3.0 0.05 0.29 0.29 94 1006.7
20260506091812 44 243 2.0 2.0 0.05 0.29 0.29 94 1007.2
20260506091310 44 243 1.0 1.0 0.00 0.28 0.28 93 1006.8
20260506090808 44 243 1.0 1.0 0.07 0.28 0.28 93 1006.9
20260506090304 44 243 1.0 1.0 0.07 0.28 0.28 93 1006.9
20260506085801 44 243 1.0 2.0 0.00 0.27 0.27 93 1007.4
20260506085257 44 281 1.0 1.0 0.00 0.27 0.27 93 1007.4
20260506084754 44 281 2.0 2.0 0.00 0.27 0.27 94 1007.4
20260506084250 44 281 2.0 2.0 0.00 0.27 0.27 94 1007.4
20260506083747 44 281 0.0 1.0 0.00 0.27 0.27 94 1007.5
20260506083245 44 281 2.0 2.0 0.00 0.27 0.27 94 1007.4
20260506082742 44 281 1.0 1.0 0.00 0.27 0.27 94 1007.2
20260506082237 44 281 1.0 1.0 0.05 0.27 0.27 94 1007.1
20260506081736 44 281 0.0 0.0 0.05 0.27 0.27 94 1006.9
20260506081233 44 281 0.0 0.0 0.00 0.26 0.26 93 1006.6
20260506080731 44 281 0.0 1.0 0.00 0.26 0.26 93 1006.9
20260506080227 44 281 1.0 1.0 0.07 0.26 0.26 92 1006.9
20260506073211 45 282 0.0 1.0 0.00 0.23 0.23 90 1007.4
20260506072708 45 282 1.0 2.0 0.05 0.23 0.23 91 1007.6
20260506072206 45 278 2.0 2.0 0.05 0.23 0.23 91 1007.5
20260506071703 45 256 0.0 2.0 0.00 0.22 0.22 92 1007.5
20260506071201 45 230 2.0 2.0 0.07 0.22 0.22 93 1007.2
20260506070657 46 282 2.0 2.0 0.07 0.22 0.22 94 1007.1
20260506070154 46 348 3.0 4.0 0.00 0.21 0.21 95 1006.7
20260506062131 47 321 4.0 6.0 0.05 0.18 0.18 96 1007.0
20260506061627 47 328 5.0 7.0 0.05 0.18 0.18 96 1007.0
20260506061125 47 343 6.0 8.0 0.07 0.17 0.17 96 1006.8
20260506060623 47 336 6.0 9.0 0.07 0.17 0.17 97 1006.7
20260506060120 47 317 2.0 4.0 0.05 0.16 0.16 97 1006.6
20260506051052 47 249 2.0 2.0 0.00 0.10 0.10 97 1007.0
20260506050550 47 254 2.0 2.0 0.05 0.10 0.10 97 1007.1
20260506045040 47 230 0.0 1.0 0.12 0.09 0.09 97 1007.1
20260506044538 47 223 2.0 3.0 0.12 0.08 0.08 97 1007.2
20260506044035 47 209 0.0 2.0 0.19 0.07 0.07 97 1007.2
20260506043532 47 208 1.0 1.0 0.05 0.05 0.05 97 1007.3
20260506043030 47 208 0.0 1.0 0.07 0.04 0.04 96 1007.2
20260506042529 47 208 2.0 2.0 0.12 0.04 0.04 96 1007.2
20260506042027 47 204 1.0 1.0 0.07 0.02 0.02 96 1007.3
20260506041525 47 204 1.0 1.0 0.12 0.02 0.02 96 1007.1
20260506041021 47 204 0.0 0.0 0.12 0.01 0.01 96 1007.4
20260506040519 47 205 3.0 3.0 0.07 0.00 0.00 96 1007.2
20260506040015 47 202 2.0 2.0 0.05 1.07 1.07 96 1007.4
20260506035512 47 203 2.0 2.0 0.05 1.07 1.07 96 1007.5
20260506035009 47 201 0.0 0.0 0.07 1.06 1.06 96 1007.3
20260506034507 47 201 0.0 1.0 0.12 1.06 1.06 96 1007.1
20260506034003 47 203 0.0 0.0 0.05 1.05 1.05 96 1007.1
20260506033501 47 203 0.0 2.0 0.07 1.04 1.04 96 1007.3
20260506032957 47 203 0.0 1.0 0.05 1.03 1.03 96 1007.5
20260506032455 47 204 1.0 3.0 0.12 1.03 1.03 96 1007.7
20260506031951 48 195 1.0 2.0 0.14 1.02 1.02 96 1007.7
20260506031449 48 197 2.0 3.0 0.12 1.00 1.00 96 1007.7
20260506030946 48 197 1.0 2.0 0.12 0.99 0.99 96 1007.6
20260506030444 48 226 1.0 2.0 0.12 0.98 0.98 96 1007.6
20260506025940 48 201 3.0 3.0 0.12 0.97 0.97 96 1007.9
20260506025437 48 185 2.0 3.0 0.12 0.96 0.96 96 1007.8
20260506024934 48 190 2.0 3.0 0.12 0.95 0.95 96 1007.9
20260506024431 48 199 3.0 6.0 0.12 0.94 0.94 96 1008.1
20260506023926 48 196 2.0 3.0 0.12 0.93 0.93 95 1007.8
20260506023424 48 183 1.0 2.0 0.12 0.91 0.91 95 1008.1
20260506022920 48 192 1.0 1.0 0.12 0.90 0.90 95 1007.7
20260506022418 48 220 3.0 3.0 0.14 0.89 0.89 95 1008.1
20260506021916 48 237 3.0 4.0 0.19 0.88 0.88 95 1008.0
20260506021413 48 234 1.0 2.0 0.19 0.86 0.86 95 1007.9
20260506020910 48 234 2.0 2.0 0.12 0.85 0.85 95 1007.6
20260506020408 48 233 2.0 2.0 0.05 0.83 0.83 95 1007.7
20260506015904 48 223 2.0 3.0 0.07 0.82 0.82 95 1007.6
20260506015402 48 226 3.0 3.0 0.12 0.82 0.82 95 1007.5
20260506014859 48 242 3.0 3.0 0.12 0.81 0.81 95 1007.7
20260506014356 48 231 2.0 3.0 0.12 0.80 0.80 95 1007.5
20260506013852 48 250 2.0 3.0 0.05 0.79 0.79 95 1007.6
20260506013350 48 255 2.0 3.0 0.07 0.78 0.78 95 1007.3
20260506012846 48 256 2.0 2.0 0.00 0.77 0.77 95 1007.5
20260506012343 48 255 1.0 2.0 0.07 0.77 0.77 95 1007.1
20260506011840 48 255 1.0 1.0 0.07 0.77 0.77 95 1007.0
20260506011337 48 255 1.0 2.0 0.00 0.76 0.76 95 1006.9
20260506010834 48 254 1.0 1.0 0.05 0.76 0.76 95 1006.8
20260506010332 48 254 1.0 2.0 0.05 0.76 0.76 95 1006.9
20260506005829 48 254 1.0 1.0 0.07 0.75 0.75 95 1007.0
20260506005326 48 255 1.0 1.0 0.07 0.75 0.75 95 1006.9
20260506004822 48 252 1.0 1.0 0.00 0.74 0.74 95 1007.0
20260506004319 48 252 2.0 2.0 0.05 0.74 0.74 95 1006.9
20260506003815 48 246 1.0 2.0 0.00 0.73 0.73 95 1007.0
20260506003312 49 260 3.0 4.0 0.07 0.73 0.73 95 1007.1
20260506002808 49 268 2.0 4.0 0.07 0.73 0.73 95 1007.2
20260506002306 50 233 4.0 4.0 0.00 0.72 0.72 96 1007.1
20260506001800 49 275 0.0 1.0 0.05 0.72 0.72 96 1007.1
20260506001258 49 275 0.0 1.0 0.05 0.72 0.72 96 1007.2
20260506000755 49 275 0.0 0.0 0.00 0.71 0.71 96 1007.2
20260506000254 49 276 0.0 0.0 0.07 0.71 0.71 95 1007.0
20260505235749 49 276 1.0 2.0 0.05 0.70 0.70 95 1007.1
20260505235247 49 306 0.0 2.0 0.12 0.70 0.70 95 1007.0
20260505234743 49 304 1.0 2.0 0.07 0.69 0.69 95 1007.0
20260505234241 50 324 3.0 3.0 0.05 0.68 0.68 95 1006.6
20260505233737 50 313 1.0 2.0 0.12 0.68 0.68 95 1006.4
20260505233236 50 325 3.0 4.0 0.07 0.67 0.67 95 1006.5
20260505232732 50 353 4.0 6.0 0.05 0.66 0.66 95 1006.6
20260505232230 50 340 4.0 3.0 0.05 0.66 0.66 95 1006.5
20260505231726 50 355 4.0 4.0 0.07 0.65 0.65 95 1006.6
20260505231226 50 334 3.0 4.0 0.14 0.65 0.65 95 1006.7
20260505230723 50 328 3.0 7.0 0.07 0.64 0.64 95 1006.5
20260505230219 50 331 4.0 6.0 0.00 0.63 0.63 95 1006.6
20260505225716 50 351 4.0 4.0 0.00 0.63 0.63 94 1006.5
20260505225213 51 15 3.0 6.0 0.05 0.63 0.63 94 1006.3
20260505224708 51 317 3.0 7.0 0.05 0.63 0.63 94 1006.9
20260505224206 51 359 2.0 3.0 0.00 0.62 0.62 95 1006.7
20260505223704 51 328 2.0 2.0 0.00 0.62 0.62 95 1006.6
20260505223159 51 6 1.0 2.0 0.00 0.62 0.62 95 1006.9
20260505222656 51 220 0.0 0.0 0.07 0.62 0.62 95 1006.9
20260505222152 51 220 0.0 0.0 0.19 0.62 0.62 95 1006.8
20260505221649 50 219 1.0 1.0 0.12 0.61 0.61 94 1006.9
20260505221146 50 136 2.0 2.0 0.12 0.59 0.59 94 1007.4
20260505220643 50 134 1.0 1.0 0.24 0.59 0.59 94 1007.0
20260505220141 50 245 1.0 1.0 0.24 0.57 0.57 94 1006.8
20260505215638 50 17 1.0 1.0 0.24 0.55 0.55 94 1006.8
20260505215136 51 5 3.0 7.0 0.31 0.53 0.53 94 1006.7
20260505214634 51 357 4.0 4.0 0.24 0.50 0.50 94 1006.5
20260505214131 50 279 3.0 6.0 0.28 0.48 0.48 94 1006.7
20260505213628 50 246 1.0 2.0 0.40 0.46 0.46 93 1006.2
20260505213125 50 260 2.0 2.0 0.31 0.42 0.42 93 1006.3
20260505212620 50 247 4.0 4.0 0.26 0.39 0.39 93 1006.6
20260505212119 51 230 2.0 3.0 0.12 0.36 0.36 93 1006.4
20260505211615 51 246 2.0 3.0 0.12 0.35 0.35 92 1006.3
20260505211112 51 270 1.0 4.0 0.05 0.33 0.33 92 1006.0
20260505210609 51 266 2.0 6.0 0.07 0.32 0.32 92 1005.9
20260505210106 51 225 3.0 4.0 0.07 0.32 0.32 91 1005.9
20260505205604 51 264 2.0 6.0 0.05 0.31 0.31 91 1006.2
20260505205101 52 268 0.0 1.0 0.12 0.31 0.31 92 1006.0
20260505204558 51 332 4.0 6.0 0.07 0.30 0.30 91 1006.0
20260505204056 52 282 2.0 4.0 0.05 0.29 0.29 92 1006.4
20260505203552 52 264 2.0 7.0 0.12 0.29 0.29 91 1006.5
20260505203049 52 288 6.0 6.0 0.00 0.27 0.27 91 1006.5
20260505202545 52 282 6.0 10.0 0.07 0.27 0.27 91 1006.6
20260505202041 53 278 7.0 11.0 0.12 0.27 0.27 92 1006.4
20260505201538 53 240 6.0 8.0 0.12 0.26 0.26 93 1006.5
20260505201036 54 314 4.0 8.0 0.07 0.25 0.25 93 1006.5
20260505200533 54 281 6.0 7.0 0.12 0.24 0.24 93 1006.7
20260505200030 55 276 5.0 7.0 0.12 0.24 0.24 93 1006.6
20260505195526 55 269 2.0 3.0 0.05 0.22 0.22 93 1006.8
20260505195024 55 262 4.0 7.0 0.12 0.21 0.21 93 1006.6
20260505194521 55 273 5.0 6.0 0.12 0.19 0.19 93 1006.8
20260505194016 56 273 4.0 6.0 0.19 0.19 0.19 93 1006.8
20260505193514 56 249 6.0 6.0 0.12 0.17 0.17 93 1006.7
20260505193011 56 234 5.0 6.0 0.05 0.16 0.16 92 1006.6
20260505192509 56 258 3.0 4.0 0.07 0.15 0.15 92 1006.4
20260505192007 56 243 6.0 8.0 0.07 0.14 0.14 92 1006.4
20260505191505 56 217 4.0 4.0 0.07 0.14 0.14 92 1006.3
20260505191002 56 239 4.0 4.0 0.05 0.13 0.13 91 1006.3
20260505190457 56 247 4.0 4.0 0.35 0.13 0.13 91 1006.0
20260505185952 56 227 3.0 3.0 0.24 0.11 0.11 91 1006.4
20260505185450 57 228 4.0 3.0 0.00 0.07 0.07 89 1006.2
20260505184946 57 228 4.0 3.0 0.00 0.07 0.07 89 1006.3
20260505184443 57 228 4.0 3.0 0.05 0.07 0.07 89 1006.0
20260505183939 57 229 4.0 7.0 0.12 0.07 0.07 89 1006.0
20260505183436 57 213 4.0 4.0 0.07 0.06 0.06 89 1006.3
20260505182933 58 229 3.0 4.0 0.12 0.05 0.05 89 1006.0
20260505182430 58 229 4.0 6.0 0.07 0.04 0.04 88 1006.3
20260505181926 58 220 4.0 4.0 0.05 0.03 0.03 87 1006.4
20260505181424 58 227 2.0 2.0 0.07 0.02 0.02 86 1006.3
20260505180921 58 242 5.0 7.0 0.07 0.02 0.02 84 1006.3
20260505180417 59 248 5.0 8.0 0.07 0.01 0.01 83 1005.9
20260505175914 59 258 7.0 8.0 0.07 0.01 0.01 81 1006.2
20260505175410 59 235 7.0 9.0 0.00 0.00 0.00 79 1006.0
20260505174906 60 205 8.0 10.0 0.00 0.00 0.00 76 1005.9
20260505174404 60 260 4.0 4.0 0.00 0.00 0.00 74 1006.0
20260505173900 60 235 8.0 9.0 0.00 0.00 0.00 73 1005.9
20260505173356 60 238 6.0 7.0 0.00 0.00 0.00 73 1006.0
20260505172853 61 211 14.0 16.0 0.00 0.00 0.00 72 1006.0
20260505172351 61 244 10.0 11.0 0.00 0.00 0.00 72 1006.2
20260505171851 61 239 11.0 13.0 0.00 0.00 0.00 72 1006.0
20260505171348 60 252 9.0 10.0 0.00 0.00 0.00 73 1005.9
20260505170844 60 240 5.0 6.0 0.00 0.00 0.00 72 1005.9
20260505170341 61 248 11.0 17.0 0.00 0.00 0.00 72 1006.0
20260505165836 61 226 15.0 16.0 0.00 0.00 0.00 70 1006.2
20260505165332 61 265 15.0 18.0 0.00 0.00 0.00 70 1006.0
20260505164828 61 250 11.0 15.0 0.00 0.00 0.00 70 1006.0
20260505164325 61 244 12.0 16.0 0.00 0.00 0.00 70 1005.9
20260505163823 61 242 12.0 18.0 0.00 0.00 0.00 70 1006.3
20260505163322 62 247 12.0 17.0 0.00 0.00 0.00 70 1005.8
20260505162820 62 266 13.0 15.0 0.00 0.00 0.00 70 1006.0
20260505162316 62 215 9.0 18.0 0.00 0.00 0.00 70 1006.0
20260505161813 61 239 15.0 19.0 0.00 0.00 0.00 70 1005.9
20260505161310 61 257 13.0 15.0 0.00 0.00 0.00 71 1006.0
20260505160808 61 267 10.0 16.0 0.00 0.00 0.00 71 1006.2
20260505160306 62 229 12.0 21.0 0.00 0.00 0.00 70 1006.2
20260505153244 62 248 19.0 22.0 0.00 0.00 0.00 69 1005.9
20260505152742 62 267 17.0 23.0 0.00 0.00 0.00 68 1006.2
20260505152238 63 240 7.0 13.0 0.00 0.00 0.00 68 1005.8
20260505151738 63 240 17.0 27.0 0.00 0.00 0.00 67 1005.6
20260505151235 64 229 17.0 21.0 0.00 0.00 0.00 66 1005.5
20260505150732 64 232 13.0 18.0 0.00 0.00 0.00 65 1005.4
20260505150229 65 260 10.0 17.0 0.00 0.00 0.00 64 1005.1
20260505140154 64 263 10.0 17.0 0.00 0.00 0.00 64 1004.1